User: anonymous   Login
Location: Unspecified
(0.0000°N, 0.0000°E)
Time: 22:45:20
(UTC+00:00)
Language:

HAI YANG 1B - Orbit

View from above orbital plane
View from above orbital plane
View from above satellite
View from above satellite

Ground track
Ground track

The orbit is defined by the following mean orbital elements,

1 31113U          26145.35078503 +.00000000 +00000-0 +48990-4 0 00005
2 31113  98.3486 128.0832 0012206 269.5275  90.4510 14.31020487    09
Epoch (UTC): 25 May 2026 08:25:07
Eccentricity: 0.0012206
inclination: 98.3486°
perigee height: 780 km
apogee height: 797 km
right ascension of ascending node: 128.0832°
argument of perigee: 269.5275°
revolutions per day: 14.31020487
mean anomaly at epoch: 90.4510°

The dashed part of the orbit path shows where the satellite is in the earth's shadow,  

DLR